Weather History for Ruston, LA

Change the Weather History Date:

Thursday, May 10, 2012

  Actual Average Record
Temperature  
Mean Temperature 66 °F -  
Max Temperature 82 °F 81 °F 90 °F (1988)
Min Temperature 50 °F 57 °F 45 °F (1961)
Cooling Degree Days 1    
Growing Degree Days 16 (Base 50)    
Moisture  
Dew Point 51 °F    
Average Humidity 66    
Maximum Humidity 100    
Minimum Humidity 23    
Precipitation  
Precipitation 0.00 in - - ()
Sea Level Pressure  
Sea Level Pressure 29.97 in    
Wind  
Wind Speed 1 mph (South)    
Max Wind Speed 7 mph    
Max Gust Speed -    
Visibility 10 miles    
Events      
Averages and records for this station are not official NWS values.
T = Trace of Precipitation, MM = Missing Value Source: NWS Daily Summary

Daily Weather History Graph

Daily Weather History Graph

Search for Another Location

Airport:

Trip Planner

Search our weather history database for the weather conditions in past years. The results will help you decide how hot, cold, wet, or windy it might be!

Date:

Astronomy

May. 10, 2012 Rise Set
Actual Time 6:15 AM CDT 7:58 PM CDT
Civil Twilight 5:48 AM CDT 8:25 PM CDT
Nautical Twilight 5:16 AM CDT 8:57 PM CDT
Astronomical Twilight 4:42 AM CDT 9:31 PM CDT
Moon No Moon Rise 10:40 AM CDT (5/10)
Length of Visible Light 14h 36m
Length of Day
13h 43m
Waning Gibbous, 73% of the Moon is Illuminated
May 10
Waning Gibbous
May 12
Last Quarter
May 20
New
May 28
First Quarter
Jun 4
Full

Hourly Weather History & Observations

Time (CDT) Temp. Dew Point Humidity Pressure Visibility Wind Dir Wind Speed Gust Speed Precip Events Conditions
12:15 AM 55.4 °F 55.4 °F 100% 29.99 in 10.0 mi Calm Calm - N/A   Clear
12:35 AM 55.4 °F 55.4 °F 100% 29.99 in 10.0 mi Calm Calm - N/A   Clear
12:55 AM 55.4 °F 55.4 °F 100% 29.99 in 10.0 mi SSE 3.5 mph - N/A   Clear
1:15 AM 55.4 °F 55.4 °F 100% 29.99 in 10.0 mi Calm Calm - N/A   Clear
1:35 AM 53.6 °F 53.6 °F 100% 29.99 in 10.0 mi Calm Calm - N/A   Clear
1:55 AM 53.6 °F 53.6 °F 100% 29.99 in 10.0 mi Calm Calm - N/A   Clear
2:15 AM 53.6 °F 53.6 °F 100% 29.98 in 10.0 mi Calm Calm - N/A   Clear
2:35 AM 53.6 °F 53.6 °F 100% 29.98 in 7.0 mi Calm Calm - N/A   Clear
2:55 AM 53.6 °F 53.6 °F 100% 29.98 in 10.0 mi Calm Calm - N/A   Clear
3:15 AM 53.6 °F 53.6 °F 100% 29.98 in 10.0 mi Calm Calm - N/A   Clear
3:35 AM 51.8 °F 51.8 °F 100% 29.98 in 10.0 mi Calm Calm - N/A   Clear
3:55 AM 51.8 °F 51.8 °F 100% 29.97 in 10.0 mi Calm Calm - N/A   Clear
4:15 AM 51.8 °F 51.8 °F 100% 29.97 in 10.0 mi Calm Calm - N/A   Clear
4:35 AM 51.8 °F 51.8 °F 100% 29.97 in 10.0 mi Calm Calm - N/A   Clear
4:55 AM 51.8 °F 51.8 °F 100% 29.97 in 10.0 mi Calm Calm - N/A   Clear
5:15 AM 51.8 °F 51.8 °F 100% 29.97 in 7.0 mi Calm Calm - N/A   Clear
5:35 AM 51.8 °F 51.8 °F 100% 29.97 in 10.0 mi Calm Calm - N/A   Clear
5:55 AM 51.8 °F 51.8 °F 100% 29.97 in 10.0 mi Calm Calm - N/A   Clear
6:15 AM 50.0 °F 50.0 °F 100% 29.98 in 7.0 mi Calm Calm - N/A   Clear
6:35 AM 50.0 °F 50.0 °F 100% 29.98 in 7.0 mi Calm Calm - N/A   Clear
6:55 AM 51.8 °F 51.8 °F 100% 29.99 in 10.0 mi Calm Calm - N/A   Clear
7:15 AM 53.6 °F 53.6 °F 100% 29.99 in 10.0 mi Calm Calm - N/A   Clear
7:35 AM 55.4 °F 55.4 °F 100% 30.00 in 10.0 mi Calm Calm - N/A   Clear
7:55 AM 60.8 °F 57.2 °F 88% 30.00 in 10.0 mi Calm Calm - N/A   Clear
8:15 AM 62.6 °F 55.4 °F 77% 30.01 in 10.0 mi Calm Calm - N/A   Clear
8:35 AM 66.2 °F 55.4 °F 68% 30.01 in 10.0 mi Calm Calm - N/A   Clear
8:55 AM 69.8 °F 55.4 °F 60% 30.01 in 10.0 mi Calm Calm - N/A   Clear
9:15 AM 71.6 °F 53.6 °F 53% 30.02 in 10.0 mi Calm Calm - N/A   Clear
9:35 AM 71.6 °F 50.0 °F 46% 30.02 in 10.0 mi Calm Calm - N/A   Clear
9:55 AM 73.4 °F 51.8 °F 47% 30.03 in 10.0 mi Calm Calm - N/A   Clear
10:15 AM 73.4 °F 50.0 °F 44% 30.02 in 10.0 mi Calm Calm - N/A   Clear
10:35 AM 77.0 °F 46.4 °F 34% 30.03 in 10.0 mi South 3.5 mph - N/A   Clear
10:55 AM 77.0 °F 41.0 °F 28% 30.02 in 10.0 mi South 3.5 mph - N/A   Clear
11:15 AM 78.8 °F 37.4 °F 23% 30.02 in 10.0 mi Calm Calm - N/A   Clear
11:35 AM 77.0 °F 37.4 °F 24% 30.01 in 10.0 mi Calm Calm - N/A   Clear
11:55 AM 77.0 °F 41.0 °F 28% 30.01 in 10.0 mi Calm Calm - N/A   Clear
12:15 PM 78.8 °F 41.0 °F 26% 30.00 in 10.0 mi South 5.8 mph - N/A   Clear
12:35 PM 78.8 °F 42.8 °F 28% 29.99 in 10.0 mi Calm Calm - N/A   Clear
12:55 PM 78.8 °F 41.0 °F 26% 29.99 in 10.0 mi Calm Calm - N/A   Clear
1:15 PM 80.6 °F 42.8 °F 26% 29.99 in 10.0 mi SSE 6.9 mph - N/A   Clear
1:35 PM 80.6 °F 42.8 °F 26% 29.99 in 10.0 mi SW 6.9 mph - N/A   Mostly Cloudy
1:55 PM 78.8 °F 42.8 °F 28% 29.98 in 10.0 mi WNW 3.5 mph - N/A   Scattered Clouds
2:15 PM 80.6 °F 42.8 °F 26% 29.97 in 10.0 mi WSW 3.5 mph - N/A   Clear
2:35 PM 80.6 °F 42.8 °F 26% 29.97 in 10.0 mi West 5.8 mph - N/A   Clear
2:55 PM 80.6 °F 42.8 °F 26% 29.96 in 10.0 mi WSW 4.6 mph - N/A   Clear
3:15 PM 82.4 °F 42.8 °F 25% 29.96 in 10.0 mi SE 5.8 mph - N/A   Scattered Clouds
3:35 PM 80.6 °F 41.0 °F 24% 29.95 in 10.0 mi Calm Calm - N/A   Scattered Clouds
3:55 PM 82.4 °F 42.8 °F 25% 29.94 in 10.0 mi SE 4.6 mph - N/A   Scattered Clouds
4:15 PM 80.6 °F 42.8 °F 26% 29.93 in 10.0 mi Calm Calm - N/A   Clear
4:35 PM 80.6 °F 41.0 °F 24% 29.93 in 10.0 mi Calm Calm - N/A   Clear
4:55 PM 80.6 °F 41.0 °F 24% 29.93 in 10.0 mi SSE 4.6 mph - N/A   Clear
5:15 PM 80.6 °F 44.6 °F 28% 29.93 in 10.0 mi Calm Calm - N/A   Clear
5:35 PM 78.8 °F 48.2 °F 34% 29.93 in 10.0 mi Calm Calm - N/A   Clear
5:55 PM 80.6 °F 44.6 °F 28% 29.92 in 10.0 mi Calm Calm - N/A   Clear
6:15 PM 78.8 °F 46.4 °F 32% 29.92 in 10.0 mi ENE 3.5 mph - N/A   Clear
6:35 PM 78.8 °F 50.0 °F 36% 29.92 in 10.0 mi Calm Calm - N/A   Clear
6:55 PM 75.2 °F 59.0 °F 57% 29.92 in 10.0 mi Calm Calm - N/A   Clear
7:15 PM 73.4 °F 57.2 °F 57% 29.93 in 10.0 mi Calm Calm - N/A   Clear
7:35 PM 69.8 °F 60.8 °F 73% 29.93 in 10.0 mi Calm Calm - N/A   Clear
7:55 PM 66.2 °F 60.8 °F 83% 29.94 in 10.0 mi Calm Calm - N/A   Clear
8:15 PM 64.4 °F 59.0 °F 83% 29.94 in 10.0 mi SSE 3.5 mph - N/A   Clear
8:35 PM 64.4 °F 57.2 °F 77% 29.94 in 10.0 mi Calm Calm - N/A   Clear
8:55 PM 62.6 °F 57.2 °F 82% 29.95 in 10.0 mi Calm Calm - N/A   Clear
9:15 PM 62.6 °F 55.4 °F 77% 29.95 in 10.0 mi Calm Calm - N/A   Clear
9:35 PM 60.8 °F 55.4 °F 82% 29.96 in 10.0 mi Calm Calm - N/A   Clear
9:55 PM 60.8 °F 55.4 °F 82% 29.96 in 10.0 mi Calm Calm - N/A   Clear
10:15 PM 60.8 °F 55.4 °F 82% 29.97 in 10.0 mi Calm Calm - N/A   Clear
10:35 PM 59.0 °F 57.2 °F 94% 29.97 in 10.0 mi Calm Calm - N/A   Clear
10:55 PM 59.0 °F 57.2 °F 94% 29.98 in 10.0 mi Calm Calm - N/A   Clear
11:15 PM 59.0 °F 59.0 °F 100% 29.98 in 10.0 mi Calm Calm - N/A   Clear
11:35 PM 57.2 °F 57.2 °F 100% 29.98 in 10.0 mi Calm Calm - N/A   Clear
11:55 PM 59.0 °F 59.0 °F 100% 29.99 in 10.0 mi Calm Calm - N/A   Clear